PRMJR SBPF-SBPK

Flight info

Callsign PRMJR
Flight time 0h 40m
Altitude 34000
Route EAGLE DCT ARSAG
Aircraft C700/M-SBDGHM1RWXY/LB2

Departure

Time 2026-05-01 12:12
Airport Lauro Kurtz Airport (SBPF)

Arrival

Time 2026-05-01 12:53
Airport João Simões Lopes Neto International Airport (SBPK)
Time Latitude Longitude Altitude Speed Heading
2026-05-01 12:03 -28.24311 -52.32952 2365 ft 0 kts 338°
2026-05-01 12:07 -28.24310 -52.32953 2364 ft 0 kts 321°
2026-05-01 12:08 -28.24311 -52.32958 2364 ft 1 kts 262°
2026-05-01 12:08 -28.24316 -52.32959 2364 ft 1 kts 186°
2026-05-01 12:08 -28.24319 -52.32956 2364 ft 1 kts 143°
2026-05-01 12:08 -28.24350 -52.32930 2365 ft 10 kts 147°
2026-05-01 12:09 -28.24436 -52.32909 2364 ft 16 kts 205°
2026-05-01 12:09 -28.24492 -52.33038 2361 ft 21 kts 248°
2026-05-01 12:09 -28.24549 -52.33201 2358 ft 19 kts 249°
2026-05-01 12:09 -28.24599 -52.33346 2354 ft 18 kts 248°
2026-05-01 12:10 -28.24629 -52.33433 2352 ft 14 kts 248°
2026-05-01 12:10 -28.24669 -52.33561 2349 ft 2 kts 130°
2026-05-01 12:10 -28.24664 -52.33529 2349 ft 4 kts 68°
2026-05-01 12:12 -28.24648 -52.33485 2351 ft 33 kts 68°
2026-05-01 12:12 -28.24438 -52.32887 2366 ft 128 kts 69°
2026-05-01 12:12 -28.24071 -52.31795 3143 ft 156 kts 64°
2026-05-01 12:13 -28.23644 -52.30518 4238 ft 189 kts 65°
2026-05-01 12:13 -28.23505 -52.28933 5346 ft 224 kts 97°
2026-05-01 12:13 -28.24011 -52.27169 6633 ft 251 kts 118°
2026-05-01 12:13 -28.25252 -52.25665 7739 ft 275 kts 148°
2026-05-01 12:14 -28.27065 -52.24779 8957 ft 291 kts 163°
2026-05-01 12:14 -28.29019 -52.24053 10444 ft 301 kts 164°
2026-05-01 12:14 -28.31090 -52.23265 11476 ft 328 kts 163°
2026-05-01 12:14 -28.33283 -52.22399 12826 ft 338 kts 163°
2026-05-01 12:15 -28.35532 -52.21504 14246 ft 347 kts 163°
2026-05-01 12:15 -28.37850 -52.20601 15508 ft 355 kts 164°
2026-05-01 12:15 -28.40210 -52.19681 16814 ft 363 kts 164°
2026-05-01 12:15 -28.42623 -52.18730 18086 ft 371 kts 164°
2026-05-01 12:16 -28.45085 -52.17758 19195 ft 379 kts 164°
2026-05-01 12:16 -28.47607 -52.16768 20210 ft 387 kts 165°
2026-05-01 12:16 -28.50153 -52.15771 21209 ft 395 kts 165°
2026-05-01 12:16 -28.52777 -52.14738 22184 ft 404 kts 165°
2026-05-01 12:17 -28.55441 -52.13591 23137 ft 416 kts 160°
2026-05-01 12:17 -28.58085 -52.12170 24004 ft 424 kts 159°
2026-05-01 12:17 -28.60773 -52.10722 24823 ft 430 kts 159°
2026-05-01 12:17 -28.63516 -52.09285 25661 ft 436 kts 160°
2026-05-01 12:18 -28.66290 -52.07831 26485 ft 443 kts 160°
2026-05-01 12:18 -28.69107 -52.06334 27315 ft 450 kts 160°
2026-05-01 12:18 -28.71962 -52.04810 28072 ft 457 kts 160°
2026-05-01 12:18 -28.74866 -52.03271 28849 ft 463 kts 161°
2026-05-01 12:19 -28.77806 -52.01715 29632 ft 469 kts 161°
2026-05-01 12:19 -28.80787 -52.00134 30387 ft 476 kts 161°
2026-05-01 12:19 -28.83804 -51.98526 31055 ft 481 kts 162°
2026-05-01 12:19 -28.86853 -51.96903 31705 ft 486 kts 162°
2026-05-01 12:20 -28.89934 -51.95265 32326 ft 492 kts 162°
2026-05-01 12:20 -28.93059 -51.93603 32894 ft 497 kts 162°
2026-05-01 12:20 -28.96208 -51.91922 33544 ft 499 kts 162°
2026-05-01 12:20 -28.99358 -51.90238 34122 ft 505 kts 163°
2026-05-01 12:21 -29.02601 -51.88521 34126 ft 523 kts 163°
2026-05-01 12:21 -29.05942 -51.86742 34136 ft 534 kts 162°
2026-05-01 12:21 -29.12679 -51.83108 34133 ft 527 kts 162°
2026-05-01 12:22 -29.19373 -51.79872 34119 ft 517 kts 172°
2026-05-01 12:22 -29.26290 -51.78484 34119 ft 502 kts 185°
2026-05-01 12:23 -29.33257 -51.77845 34120 ft 501 kts 184°
2026-05-01 12:23 -29.40200 -51.77194 34114 ft 502 kts 185°
2026-05-01 12:24 -29.47190 -51.76543 34109 ft 505 kts 184°
2026-05-01 12:24 -29.54178 -51.75884 34105 ft 501 kts 185°
2026-05-01 12:25 -29.64601 -51.74913 34105 ft 503 kts 184°
2026-05-01 12:26 -29.71591 -51.74253 34106 ft 503 kts 184°
2026-05-01 12:26 -29.82020 -51.73275 34106 ft 500 kts 184°
2026-05-01 12:27 -29.92408 -51.72296 34104 ft 502 kts 184°
2026-05-01 12:28 -30.01752 -51.71412 34103 ft 503 kts 184°
2026-05-01 12:29 -30.12186 -51.70425 34104 ft 500 kts 184°
2026-05-01 12:29 -30.22620 -51.69438 34105 ft 504 kts 184°
2026-05-01 12:30 -30.33023 -51.68446 34104 ft 499 kts 184°
2026-05-01 12:31 -30.39951 -51.67791 34101 ft 502 kts 184°
2026-05-01 12:31 -30.46988 -51.67121 33485 ft 506 kts 184°
2026-05-01 12:31 -30.50471 -51.66777 32828 ft 497 kts 184°
2026-05-01 12:32 -30.53893 -51.66448 32180 ft 491 kts 184°
2026-05-01 12:32 -30.60748 -51.65817 30879 ft 500 kts 184°
2026-05-01 12:32 -30.64215 -51.65618 30214 ft 496 kts 189°
2026-05-01 12:33 -30.67622 -51.65937 29517 ft 485 kts 196°
2026-05-01 12:33 -30.70832 -51.66697 28890 ft 469 kts 203°
2026-05-01 12:33 -30.73922 -51.67891 28266 ft 455 kts 210°
2026-05-01 12:33 -30.76713 -51.69410 27675 ft 444 kts 216°
2026-05-01 12:34 -30.79321 -51.71272 27097 ft 436 kts 222°
2026-05-01 12:34 -30.81731 -51.73379 26524 ft 432 kts 225°
2026-05-01 12:34 -30.84125 -51.75494 25951 ft 432 kts 224°
2026-05-01 12:34 -30.86530 -51.77597 25380 ft 430 kts 224°
2026-05-01 12:35 -30.88904 -51.79688 24823 ft 426 kts 224°
2026-05-01 12:35 -30.91258 -51.81777 24262 ft 423 kts 224°
2026-05-01 12:35 -30.93596 -51.83848 23704 ft 421 kts 224°
2026-05-01 12:35 -30.95925 -51.85902 23100 ft 418 kts 223°
2026-05-01 12:36 -30.98241 -51.87948 22549 ft 416 kts 223°
2026-05-01 12:36 -31.00543 -51.89992 22000 ft 416 kts 223°
2026-05-01 12:36 -31.02849 -51.92038 21453 ft 417 kts 223°
2026-05-01 12:36 -31.05125 -51.94053 20910 ft 415 kts 223°
2026-05-01 12:37 -31.07420 -51.96086 20369 ft 413 kts 223°
2026-05-01 12:37 -31.09701 -51.98112 19822 ft 411 kts 223°
2026-05-01 12:37 -31.12006 -52.00162 19266 ft 410 kts 223°
2026-05-01 12:37 -31.14244 -52.02151 18744 ft 410 kts 223°
2026-05-01 12:38 -31.16512 -52.04168 18177 ft 410 kts 222°
2026-05-01 12:38 -31.18768 -52.06173 17624 ft 405 kts 222°
2026-05-01 12:38 -31.20992 -52.08152 17094 ft 399 kts 223°
2026-05-01 12:38 -31.23187 -52.10109 16570 ft 395 kts 223°
2026-05-01 12:39 -31.25359 -52.12048 16048 ft 391 kts 222°
2026-05-01 12:39 -31.27515 -52.13970 15531 ft 388 kts 222°
2026-05-01 12:39 -31.29654 -52.15879 15026 ft 385 kts 222°
2026-05-01 12:39 -31.31776 -52.17773 14516 ft 380 kts 222°
2026-05-01 12:40 -31.33870 -52.19644 14016 ft 376 kts 222°
2026-05-01 12:40 -31.35936 -52.21495 13491 ft 372 kts 222°
2026-05-01 12:40 -31.37979 -52.23320 12996 ft 367 kts 222°
2026-05-01 12:40 -31.39998 -52.25126 12515 ft 365 kts 222°
2026-05-01 12:41 -31.42010 -52.26931 12033 ft 362 kts 222°
2026-05-01 12:41 -31.43875 -52.28588 11582 ft 320 kts 222°
2026-05-01 12:41 -31.45616 -52.30151 11169 ft 313 kts 222°
2026-05-01 12:41 -31.47282 -52.31655 10765 ft 294 kts 222°
2026-05-01 12:42 -31.48887 -52.33096 10382 ft 287 kts 222°
2026-05-01 12:42 -31.50455 -52.34503 10011 ft 280 kts 222°
2026-05-01 12:42 -31.51990 -52.35882 9629 ft 275 kts 222°
2026-05-01 12:42 -31.53502 -52.37243 9257 ft 275 kts 222°
2026-05-01 12:43 -31.55028 -52.38618 8887 ft 278 kts 221°
2026-05-01 12:43 -31.56566 -52.40001 8522 ft 280 kts 221°
2026-05-01 12:43 -31.58113 -52.41391 8156 ft 280 kts 221°
2026-05-01 12:43 -31.59661 -52.42783 7788 ft 280 kts 221°
2026-05-01 12:44 -31.61203 -52.44172 7421 ft 279 kts 221°
2026-05-01 12:44 -31.62739 -52.45556 7053 ft 278 kts 221°
2026-05-01 12:44 -31.65787 -52.48303 6284 ft 279 kts 220°
2026-05-01 12:45 -31.68862 -52.51078 5529 ft 278 kts 220°
2026-05-01 12:45 -31.70397 -52.52464 5163 ft 279 kts 220°
2026-05-01 12:45 -31.71915 -52.53830 4795 ft 268 kts 221°
2026-05-01 12:46 -31.73386 -52.55100 4439 ft 258 kts 214°
2026-05-01 12:46 -31.75028 -52.55873 4102 ft 253 kts 193°
2026-05-01 12:46 -31.76756 -52.55956 3777 ft 246 kts 171°
2026-05-01 12:46 -31.78349 -52.55377 3535 ft 234 kts 150°
2026-05-01 12:47 -31.79630 -52.54373 3437 ft 203 kts 134°
2026-05-01 12:47 -31.80513 -52.53207 3266 ft 187 kts 118°
2026-05-01 12:47 -31.81191 -52.51835 2969 ft 202 kts 112°
2026-05-01 12:47 -31.81754 -52.50316 2814 ft 198 kts 97°
2026-05-01 12:48 -31.81805 -52.48816 2724 ft 173 kts 76°
2026-05-01 12:48 -31.81528 -52.47504 2593 ft 160 kts 61°
2026-05-01 12:48 -31.81001 -52.46405 2455 ft 151 kts 48°
2026-05-01 12:48 -31.80318 -52.45475 2288 ft 150 kts 44°
2026-05-01 12:49 -31.79660 -52.44536 2143 ft 147 kts 45°
2026-05-01 12:49 -31.79005 -52.43609 1983 ft 147 kts 45°
2026-05-01 12:49 -31.78355 -52.42685 1847 ft 146 kts 46°
2026-05-01 12:49 -31.77702 -52.41763 1715 ft 148 kts 47°
2026-05-01 12:50 -31.77053 -52.40830 1639 ft 144 kts 46°
2026-05-01 12:50 -31.76406 -52.39917 1640 ft 149 kts 45°
2026-05-01 12:50 -31.75841 -52.39046 1611 ft 122 kts 51°
2026-05-01 12:50 -31.75383 -52.38228 1368 ft 118 kts 50°
2026-05-01 12:51 -31.74892 -52.37443 1114 ft 119 kts 49°
2026-05-01 12:51 -31.74391 -52.36684 914 ft 117 kts 49°
2026-05-01 12:51 -31.73349 -52.35173 454 ft 118 kts 50°
2026-05-01 12:52 -31.72835 -52.34414 303 ft 120 kts 50°
2026-05-01 12:52 -31.71821 -52.32937 62 ft 100 kts 51°
2026-05-01 12:52 -31.71474 -52.32431 59 ft 54 kts 52°
2026-05-01 12:53 -31.71327 -52.32214 55 ft 4 kts 233°
2026-05-01 12:53 -31.71369 -52.32275 58 ft 14 kts 231°
2026-05-01 12:53 -31.71436 -52.32374 59 ft 17 kts 231°
2026-05-01 12:54 -31.71519 -52.32495 58 ft 17 kts 231°
2026-05-01 12:54 -31.71691 -52.32746 57 ft 18 kts 231°